OPS 4682 DEB, 15340

Orbit data source: Space-Track

OPS 4682 DEB, 15340 is space debris in LEO originally from a launch on Sat, 03 Apr 1965 UTC launched from the Air Force Western Test Range (AFWTR). Debris objects in space refer to the collection of defunct objects orbiting the Earth. Examples of debris include non-operational satellites, rocket bodies, and fragments generated from explosions, collisions, or faulty payload assembly.

Loading next visibility...
Identifier
15340, 1965-027R
Orbit
LEO
Country
Flag of USUS
Related business
Manufacturer
Unknown
Mission
Spacecraft
Bus & Motor
Unknown
Mass
Unknown
Launch date (UTC)
1965-04-03 (61 years ago)
Launch vehicle
Unknown
Launch site
Air Force Western Test Range (AFWTR)
Object type
Payload
Rocket body
Debris
Shape & HBR
Unknown shape, 0.1 m
Radar Cross Section
Small (<0.1 m²)

Expand to show TLE details & history
Last TLE update: 2 days ago

TLE from 2 days ago
0 OPS 4682 DEB
1 15340U 65027R   26106.18764744  .00000880  00000-0  29307-2 0  9998
2 15340  90.2421   4.3646 0033599 186.5804 326.8585 12.99112559975470
Epoch: 2026-04-16T04:30Z
TLE epoch observation values (Epoch: 2026-04-16T04:30:12.738Z)
Latitude
26.80541°
Longitude
-87.40555°
Altitude
1,247.351 km
Speed
7.244 km/s
True Right ascension
12h 17m 56s
True Declination
26° 40' 34"
Sunlit
Object was in full shadow at epoch
Visualization orbit readout
Latitude
Unknown
Longitude
Unknown
Altitude
Unknown
Speed
Unknown
Apparent Right ascension
Unknown
Apparent Declination
Unknown
Sunlit
N/A
Visualization observer readout
Local Sidereal Time
01:58:42
Azimuth
Unknown
Elevation
Unknown
Doppler factor
Unknown
Orbital elements
Apogee altitude
1,288.366 km
Perigee altitude
1,237.022 km
Semi-major axis
7,640.831 km
Eccentricity
0.00336
Inclination
90.2421°
RAAN
4.3646°
Arg. of periapsis
186.5804°
True anomaly
326.64727°
Mean anomaly
326.8585°
Eccentric anomaly
326.75296°
Mean motion
3.24962 °/min
Orbital period
110.78 mins
BSTAR
0.0029307
Loading maneuver chart data...
Computing Atmospheric mass density...
Loading historical data...
Loading historical data...
Loading historical data...
Loading historical data...
Loading historical data...
Loading historical data...
Loading historical data...

Documentation

Showing up to 5 results
|